Weather Roundup
Issued by NWS Corpus Christi, TX

Home | Current Version | Previous Version | Text Only | Print | Product List | Glossary On
Versions: 1 2 3 4 5 6 7 8 9 10 11 12 13 14 15 16 17 18 19 20 21 22 23 24 25 26 27 28 29 30 31 32 33 34 35 36 37 38 39 40 41 42 43 44 45 46 47 48 49 50
000
ASUS44 KCRP 241010
HRRCRP

SOUTH TEXAS REGIONAL WEATHER ROUNDUP
NATIONAL WEATHER SERVICE CORPUS CHRISTI TX
500 AM CDT FRI OCT 24 2014


TXZ229>244-241100-
...CORPUS CHRISTI AREA OBSERVATIONS...

CITY           SKY/WX    TMP DP  RH WIND       PRES   REMARKS
CORPUS CHRISTI PTCLDY    64  63  96 NW6       30.09R
NAS CORPUS CHR CLEAR     68  65  90 E3        30.08S
ROCKPORT       CLEAR     66  64  93 N3        30.09S
KINGSVILLE NAS CLEAR     62  62 100 NW6       30.09S
ALICE          CLEAR     63  61  93 NW6       30.09S
FALFURRIAS     CLEAR     62  61  96 NW3       30.09R
$$

...VICTORIA AREA OBSERVATIONS...

CITY           SKY/WX    TMP DP  RH WIND       PRES   REMARKS
VICTORIA       CLEAR     58  54  86 N7        30.11S
BEEVILLE       FAIR      61  59  93 N3        30.10S
PLEASANTON     CLEAR     60  55  86 CALM      30.12S
SAN ANTONIO    CLEAR     62  57  83 NW3       30.12F
$$

...LAREDO AREA OBSERVATIONS...

CITY           SKY/WX    TMP DP  RH WIND       PRES   REMARKS
LAREDO         CLEAR     66  62  87 E5        30.12S
COTULLA        CLEAR     65  58  78 CALM      30.11R
DEL RIO        CLEAR     64  61  90 NE6       30.09S
MCALLEN        CLEAR     67  65  93 CALM      30.08S
HEBBRONVILLE   CLEAR     62  60  93 CALM      30.11S
$$

...OTHER TEXAS OBSERVATIONS...

CITY           SKY/WX    TMP DP  RH WIND       PRES   REMARKS
BROWNSVILLE    CLEAR     67  66  97 NW6       30.05F
HOUSTON        CLEAR     55  52  89 N3        30.12S
COL. STATION   CLEAR     60  54  80 CALM      30.12S
AUSTIN         CLEAR     56  55  97 CALM      30.13R
WACO           MOCLDY    64  55  72 S10       30.13R
FORT WORTH     CLOUDY    64  56  75 S6        30.11R
WICHITA FALLS  CLEAR     60  57  89 S8        30.07S
LUBBOCK        PTCLDY    53  51  93 W6        30.13S FOG
EL PASO        CLEAR     57  52  83 SE6       30.18F
$$

...MARINE OBSERVATIONS...

STATION/POSITION TIME  SKY/WX   TEMP    WIND        PRES    VSBY  WAVE   SWELL
                                AIR SEA DIR/SP/G                  HT/PER HT/PER
                 (UTC)          (F)     (DEG/KT/KT) (MB)    (MI)  (FT/S) (FT/S)
PORT ARANSAS     1000            75 78   70/  5/  6 1019.3R
BUOY 90 E PORT A 1000            74 81   20/  8/ 10 1018.8S         4/ 7   3/ 7
BUOY 45 SE BAFFI 1000            76 80   30/  6/ 10 1017.7S         4/ 8   3/ 8
BUOY 200 E PT IS 1000            75 81   30/ 10/ 12 1016.6F         5/ 8   5/ 8
BUOY 15 E GALVES 1000            69 77   50/  8/ 12 1018.8R         2/ 7   2/ 7
$$



USA.gov is the U.S. government's official web portal to all federal, state and local government web resources and services.